[[{"header":{"parameterUnit":"m.s-1","parameterCategory":1,"la1":30.2991,"la2":30.254,"lo1":-89.0895,"lo2":-89.0444,"dy":0.0017,"dx":0.0017,"nx":28,"ny":28,"refTime":"2025-11-10T03:00:00:Z","depth":0,"parameterNumber":2,"parameterNumberName":"U-component_of_WINDS"},"data":[0,0,0,0,0,0,0,0,0,0,0,0,0,0,0,0,0,0,0,0,0,0,0,0,0,0,0,0,0,0,0,0,0,0,0,0,0,0,0,0,0,0,0,0,0,0,0,0,0,0,0,0,0,0,0,0,0,0,3.6583,3.6583,0,3.662,3.6621,3.6621,3.6581,3.6579,3.6578,3.6576,3.6614,3.6617,3.6619,0,0,0,0,0,0,0,0,0,0,0,0,0,3.6477,3.648,3.6583,3.6583,3.6584,3.662,3.6621,3.6621,3.6581,3.6579,3.6577,3.6576,3.6613,3.6616,3.6619,0,0,0,0,0,0,0,0,0,0,0,0,0,3.652,3.648,3.6583,3.6568,3.6567,3.662,3.6621,3.6622,3.6582,3.6579,3.6577,3.6575,3.6612,3.6616,3.662,3.6689,0,0,3.6631,3.6632,0,0,0,0,0,0,0,0,3.6518,3.6524,3.657,3.6569,3.6568,3.6594,3.6598,3.6644,3.6582,3.6576,3.6576,3.6574,3.6609,3.6613,3.6625,3.669,3.6692,3.6631,3.6633,3.6635,3.6636,0,0,0,0,0,0,0,3.6515,3.6522,3.6598,3.6571,3.657,3.656,3.6564,3.6606,3.6605,3.6576,3.6574,3.6579,3.6608,3.6622,3.6626,3.6693,3.6631,3.6634,3.6637,3.6638,3.6819,3.6821,0,0,0,0,0,0,3.6513,3.652,3.6597,3.6599,3.6537,3.6564,3.6568,3.6588,3.6605,3.6605,3.6581,3.6577,3.6616,3.6621,3.6627,3.671,3.6635,3.6638,3.664,3.6816,3.6819,3.6822,0,0,0,0,0,0,3.6511,3.6521,3.6595,3.6559,3.6567,3.6568,3.6591,3.659,3.6603,3.6608,3.6607,3.6594,3.6615,3.6622,3.6674,3.671,3.664,3.6643,3.6813,3.6817,3.6821,3.6876,0,0,0,0,0,0,3.6508,3.652,3.6546,3.656,3.6569,3.6642,3.6593,3.6592,3.661,3.6605,3.6621,3.6621,3.6614,3.6669,3.6678,3.6714,3.6646,3.681,3.6815,3.6819,3.6871,3.6881,3.689,0,0,0,0,0,3.6505,3.6559,3.6547,3.6557,3.6602,3.6644,3.6649,3.664,3.6613,3.6639,3.6642,3.662,3.6705,3.6675,3.6684,3.6722,3.6807,3.6813,3.6819,3.6866,3.6879,3.689,0,0,0,0,0,0,3.6549,3.6561,3.6548,3.6608,3.6626,3.6637,3.6669,3.6653,3.6678,3.6673,3.666,3.6664,3.672,3.6726,3.6692,3.6791,3.6752,3.676,3.6785,3.6797,3.6806,3.6803,3.6649,0,0,0,0,0,3.6566,3.6599,3.6608,3.666,3.667,3.6669,3.6686,3.6678,3.6695,3.6702,3.6709,3.6726,3.6757,3.6777,3.6805,3.6872,3.6875,3.6903,3.6913,3.6921,3.6927,3.6964,3.6977,3.6841,3.6841,3.6841,0,0,3.6602,3.6612,3.6633,3.667,3.6682,3.6717,3.6675,3.6713,3.6739,3.6707,3.6757,3.6764,3.6782,3.6842,3.6869,3.685,3.6966,3.6928,3.6934,3.6937,3.6972,3.6985,3.6996,3.6845,3.6844,3.6844,0,0,3.6684,3.6695,3.674,3.6754,3.6773,3.6772,3.6784,3.6798,3.6801,3.6851,3.6829,3.686,3.6913,3.6927,3.6942,3.7032,3.7013,3.7042,3.7092,3.7128,3.7139,3.7148,3.7181,3.7193,3.7049,3.7049,3.7049,0,3.6725,3.6776,3.6766,3.6806,3.6823,3.6798,3.6845,3.6858,3.6886,3.6899,3.6876,3.6944,3.6954,3.7018,3.704,3.7053,3.7066,3.7039,3.7138,3.7147,3.7156,3.7187,3.72,3.7052,3.7052,3.7052,3.7051,0,3.6826,3.6862,3.6897,3.6925,3.6947,3.699,3.6987,3.701,3.7,3.7002,3.7054,3.7067,3.7098,3.7112,3.7103,3.7176,3.7163,3.714,3.71,3.7173,3.7202,3.7214,3.7057,3.7056,3.7055,3.7054,0,0,3.6935,3.6959,3.6972,3.6985,3.7006,3.7034,3.7077,3.7108,3.7128,3.7149,3.7185,3.7231,3.7211,3.7227,3.7219,3.7251,3.7323,3.7224,3.7225,3.7243,3.7405,3.7423,3.7436,3.7311,3.7314,3.7315,3.7404,0,3.7018,3.7093,3.7086,3.7156,3.719,3.7168,3.7205,3.7223,3.7226,3.7256,3.7259,3.7293,3.7262,3.7273,3.7303,3.7308,3.7356,3.7302,3.7345,3.7347,3.7341,3.7452,3.7469,3.7552,3.7415,3.7417,3.7418,0,3.7124,3.7149,3.7224,3.7241,3.7255,3.7289,3.7318,3.7346,3.7366,3.7366,3.7386,3.7373,3.7418,3.7378,3.7439,3.7402,3.742,3.7425,3.7428,3.7432,3.7387,3.7458,3.7578,3.7591,3.7436,3.7435,3.7433,0,3.7197,3.725,3.7301,3.7313,3.7335,3.7359,3.7369,3.7386,3.7406,3.7432,3.7445,3.7475,3.7491,3.7516,3.7512,3.7483,3.7575,3.7534,3.7577,3.7577,3.7596,3.7595,3.7721,3.7608,3.7608,3.7608,3.7607,0,3.729,3.7336,3.7335,3.7366,3.7418,3.7411,3.7463,3.747,3.7486,3.7519,3.7502,3.7533,3.7527,3.7558,3.7556,3.7608,3.7615,3.7617,3.7616,3.7619,3.7618,3.7629,3.7624,3.7611,3.761,3.7609,3.7609,0,3.738,3.738,3.7435,3.7451,3.7457,3.7494,3.7508,3.7539,3.7542,3.7584,3.7594,3.7598,3.7635,3.7634,3.7676,3.7674,3.7738,3.773,3.7731,3.773,3.7772,3.7768,3.791,3.7928,3.7803,3.7804,3.7805,0,3.7439,3.7474,3.7495,3.7516,3.7528,3.7562,3.7583,3.7577,3.7599,3.7626,3.7653,3.7689,3.7717,3.7777,3.7784,3.7816,3.7809,3.7856,3.7813,3.7816,3.781,3.7808,3.7812,3.7864,3.7866,3.7867,3.7868,0,3.7544,3.7543,3.7573,3.7604,3.7629,3.7653,3.7676,3.7694,3.7691,3.7717,3.7755,3.7777,3.782,3.7856,3.7888,3.7898,3.7883,3.7882,3.7893,3.7896,3.7896,3.7897,3.7754,3.7878,3.7877,3.7876,3.7876,3.7875,3.762,3.7651,3.7671,3.7706,3.7722,3.7744,3.7774,3.7781,3.7812,3.7847,3.7843,3.7885,3.7906,3.7946,3.796,3.7994,3.7977,3.7994,3.7998,3.8002,3.8007,3.7891,3.8,3.7999,3.7999,3.7999,3.7999,0,3.7724,3.7736,3.7769,3.7801,3.7829,3.7813,3.7837,3.7862,3.7899,3.792,3.7948,3.7993,3.8028,3.8039,3.8073,3.8098,3.8092,3.8107,3.8105,3.8108,3.802,3.8007,3.8111,3.8111,3.8111,3.8111,3.8111,3.8111,3.7782,3.7834,3.7836,3.7896,3.7908,3.795,3.7965,3.7986,3.8002,3.8053,3.8082,3.8089,3.8106,3.8142,3.8174,3.8176,3.819,3.8208,3.8208,3.8125,3.8114,3.8103,3.809,3.8211,3.8211,3.8293,3.8293,3.8294]},{"header":{"parameterUnit":"m.s-1","parameterCategory":1,"la1":30.2991,"la2":30.254,"lo1":-89.0895,"lo2":-89.0444,"dy":0.0017,"dx":0.0017,"nx":28,"ny":28,"refTime":"2025-11-10T03:00:00:Z","depth":0,"parameterNumber":3,"parameterNumberName":"V-component_of_WINDS"},"data":[0,0,0,0,0,0,0,0,0,0,0,0,0,0,0,0,0,0,0,0,0,0,0,0,0,0,0,0,0,0,0,0,0,0,0,0,0,0,0,0,0,0,0,0,0,0,0,0,0,0,0,0,0,0,0,0,0,0,-9.295,-9.2952,0,-9.3121,-9.3123,-9.3125,-9.3034,-9.303,-9.3025,-9.3021,-9.3188,-9.3197,-9.3205,0,0,0,0,0,0,0,0,0,0,0,0,0,-9.2541,-9.2549,-9.295,-9.2952,-9.2955,-9.3121,-9.3123,-9.3125,-9.3035,-9.303,-9.3024,-9.3019,-9.3186,-9.3196,-9.3206,0,0,0,0,0,0,0,0,0,0,0,0,0,-9.2716,-9.2552,-9.295,-9.293,-9.293,-9.312,-9.3123,-9.3126,-9.3036,-9.303,-9.3023,-9.3016,-9.3182,-9.3195,-9.3208,-9.3425,0,0,-9.3248,-9.3253,0,0,0,0,0,0,0,0,-9.2706,-9.2731,-9.2931,-9.2932,-9.2932,-9.305,-9.304,-9.3226,-9.3038,-9.2996,-9.3021,-9.3013,-9.3147,-9.3163,-9.321,-9.3433,-9.344,-9.3249,-9.3257,-9.3262,-9.3266,0,0,0,0,0,0,0,-9.2694,-9.2723,-9.3017,-9.2934,-9.2934,-9.2911,-9.2928,-9.3075,-9.3107,-9.2999,-9.2993,-9.3015,-9.3146,-9.3197,-9.3213,-9.3443,-9.3248,-9.326,-9.3268,-9.3273,-9.3855,-9.3862,0,0,0,0,0,0,-9.2684,-9.2714,-9.3012,-9.3022,-9.28,-9.2924,-9.2943,-9.3019,-9.3106,-9.3113,-9.302,-9.301,-9.3178,-9.3198,-9.3218,-9.348,-9.3262,-9.3274,-9.3282,-9.3847,-9.3857,-9.3865,0,0,0,0,0,0,-9.2676,-9.2712,-9.3005,-9.2867,-9.2902,-9.2938,-9.3024,-9.3025,-9.3076,-9.3122,-9.3127,-9.3067,-9.3174,-9.32,-9.3375,-9.3485,-9.328,-9.3292,-9.3839,-9.385,-9.3861,-9.4005,0,0,0,0,0,0,-9.2664,-9.2709,-9.2793,-9.2869,-9.291,-9.3162,-9.303,-9.3034,-9.31,-9.3088,-9.3167,-9.3173,-9.317,-9.3357,-9.3389,-9.3499,-9.3302,-9.3829,-9.3844,-9.3857,-9.3991,-9.402,-9.4045,0,0,0,0,0,-9.265,-9.2825,-9.2798,-9.2834,-9.3016,-9.3168,-9.3191,-9.3186,-9.3109,-9.3194,-9.3223,-9.3171,-9.3468,-9.3375,-9.341,-9.3527,-9.3822,-9.384,-9.3856,-9.3979,-9.4014,-9.4045,0,0,0,0,0,0,-9.2758,-9.2834,-9.2805,-9.3011,-9.3084,-9.3153,-9.3259,-9.3224,-9.3318,-9.3303,-9.329,-9.3309,-9.3492,-9.3526,-9.3422,-9.3743,-9.3633,-9.3658,-9.3714,-9.3748,-9.3775,-9.3763,-9.3313,0,0,0,0,0,-9.2806,-9.2925,-9.2984,-9.316,-9.3198,-9.3223,-9.3288,-9.3279,-9.3353,-9.3383,-9.3425,-9.3497,-9.3607,-9.3679,-9.3782,-9.3995,-9.4011,-9.4093,-9.412,-9.4142,-9.4164,-9.428,-9.4317,-9.3921,-9.3921,-9.3921,0,0,-9.2905,-9.2962,-9.3037,-9.3183,-9.3238,-9.3361,-9.3249,-9.3382,-9.3472,-9.3402,-9.3572,-9.3605,-9.3685,-9.3881,-9.3969,-9.3915,-9.4277,-9.4164,-9.4181,-9.4191,-9.4302,-9.4339,-9.4373,-9.3933,-9.3931,-9.3929,0,0,-9.315,-9.3205,-9.3358,-9.3417,-9.3504,-9.3519,-9.3556,-9.3631,-9.3652,-9.3823,-9.3773,-9.3879,-9.4068,-9.4127,-9.4182,-9.4452,-9.4408,-9.4486,-9.4628,-9.4742,-9.4773,-9.4801,-9.4898,-9.4933,-9.4507,-9.4508,-9.4508,0,-9.3262,-9.3446,-9.344,-9.3579,-9.3644,-9.359,-9.3744,-9.3801,-9.3916,-9.3962,-9.39,-9.4139,-9.4188,-9.4398,-9.4464,-9.451,-9.4552,-9.4477,-9.477,-9.4797,-9.4823,-9.4915,-9.4952,-9.4517,-9.4516,-9.4515,-9.4514,0,-9.358,-9.3709,-9.3822,-9.3938,-9.4016,-9.4162,-9.4177,-9.4257,-9.4241,-9.4263,-9.4437,-9.4495,-9.461,-9.4659,-9.4643,-9.4868,-9.4832,-9.4771,-9.466,-9.487,-9.4957,-9.4992,-9.453,-9.4527,-9.4524,-9.4522,0,0,-9.3896,-9.401,-9.4051,-9.4105,-9.4198,-9.4296,-9.4439,-9.4555,-9.4624,-9.4705,-9.4825,-9.4987,-9.4932,-9.4995,-9.4985,-9.5085,-9.5297,-9.5011,-9.5013,-9.5063,-9.5549,-9.5595,-9.5637,-9.5268,-9.5275,-9.528,-9.5543,0,-9.4147,-9.4401,-9.4401,-9.4634,-9.4753,-9.4704,-9.4829,-9.4899,-9.4924,-9.5026,-9.5052,-9.5168,-9.5086,-9.5124,-9.522,-9.5251,-9.5394,-9.5232,-9.5378,-9.5384,-9.5361,-9.5682,-9.5731,-9.5976,-9.5576,-9.5582,-9.5586,0,-9.4474,-9.4571,-9.4817,-9.4896,-9.4945,-9.5058,-9.5165,-9.5264,-9.5342,-9.5353,-9.5425,-9.5401,-9.5545,-9.5431,-9.563,-9.552,-9.5579,-9.5603,-9.5613,-9.5626,-9.5498,-9.5705,-9.6053,-9.6091,-9.5639,-9.5635,-9.5631,0,-9.4681,-9.4872,-9.5045,-9.5092,-9.5187,-9.5268,-9.531,-9.5382,-9.5452,-9.5545,-9.5591,-9.5698,-9.5757,-9.5839,-9.5844,-9.576,-9.6046,-9.5931,-9.6058,-9.6058,-9.612,-9.6116,-9.6484,-9.6158,-9.6157,-9.6157,-9.6156,0,-9.4963,-9.5116,-9.514,-9.5246,-9.5416,-9.5414,-9.5582,-9.5617,-9.5682,-9.5793,-9.5756,-9.5861,-9.5861,-9.5967,-9.5972,-9.6136,-9.6163,-9.6175,-9.6174,-9.6179,-9.6178,-9.6218,-9.6201,-9.6167,-9.6164,-9.6162,-9.6161,0,-9.5223,-9.5245,-9.5431,-9.5507,-9.553,-9.5652,-9.5716,-9.5817,-9.5838,-9.598,-9.6013,-9.6046,-9.617,-9.6184,-9.6326,-9.6329,-9.6529,-9.6509,-9.6504,-9.6501,-9.6628,-9.6616,-9.7035,-9.709,-9.6727,-9.6731,-9.6733,0,-9.5401,-9.5518,-9.5608,-9.5682,-9.5731,-9.5849,-9.5921,-9.5924,-9.6001,-9.61,-9.6189,-9.631,-9.6407,-9.6606,-9.6642,-9.6752,-9.6735,-9.6874,-9.6751,-9.6753,-9.6738,-9.6732,-9.6744,-9.6898,-9.6902,-9.6905,-9.6908,0,-9.5716,-9.5722,-9.583,-9.5943,-9.6031,-9.6119,-9.6202,-9.6263,-9.6276,-9.6364,-9.6492,-9.6568,-9.6716,-9.6836,-9.6944,-9.6986,-9.695,-9.6947,-9.6982,-9.6988,-9.6981,-9.6988,-9.657,-9.6937,-9.6934,-9.6932,-9.693,-9.6929,-9.5941,-9.6044,-9.6125,-9.6246,-9.631,-9.6388,-9.6488,-9.6524,-9.6631,-9.6754,-9.6748,-9.689,-9.6965,-9.7108,-9.7158,-9.7267,-9.7221,-9.7271,-9.7284,-9.7297,-9.7311,-9.6964,-9.7287,-9.7286,-9.7285,-9.7284,-9.7284,0,-9.6255,-9.6306,-9.6418,-9.6536,-9.6632,-9.6593,-9.6682,-9.6765,-9.6891,-9.6966,-9.7063,-9.7211,-9.7328,-9.7374,-9.7489,-9.7567,-9.7554,-9.7597,-9.7592,-9.7602,-9.7345,-9.7304,-9.7607,-9.7607,-9.7606,-9.7606,-9.7606,-9.7606,-9.643,-9.6603,-9.6619,-9.6822,-9.687,-9.7012,-9.7066,-9.7139,-9.7199,-9.7367,-9.7465,-9.7496,-9.756,-9.7679,-9.7784,-9.7794,-9.7838,-9.789,-9.7893,-9.7652,-9.762,-9.7589,-9.755,-9.7899,-9.79,-9.8141,-9.8143,-9.8145]}]]